Location: Napier
(39.4830°S, 176.9170°E)
Time: 02:13:39
(UTC+12:00)

Cosmos 1939 Rocket - Pass Details

Date: 15 August 2020
Orbit: 533 x 583 km, 97.4° (Epoch: 19 September)

Event Time Altitude Azimuth Distance (km) Brightness Sun altitude
Exits shadow 19:35:07 44° 188° (S) 772 3.5 -23.8°
Maximum altitude 19:36:14 69° 256° (WSW) 591 3.0 -24.0°
Drops below altitude 10° 19:40:07 10° 339° (NNW) 1,802 5.6 -24.8°
Sets 19:42:12 0° 341° (NNW) 2,681 6.5 -25.2°
